Terug naar catalogus

STARLINK-3260

ActiefCommunicatieVLEO
NORAD 50205·PAYLOAD·🇺🇸 United States

Gelanceerd Dec 18, 2021 vanaf Vandenberg Space Force Base

Loading…

Volgende Passages (komende 24 uur)

TLE

VersSource: CelesTrak SupGP

Epoch: Sep 14, 2026, 13:05 UTC

1 50205C 21125BB  26257.54562500  .00001256  00000+0  40377-4 0  2577
2 50205  53.1580  76.5372 0001163  96.5231  12.7516 15.31707459    18

Volg STARLINK-3260 in realtime met AllMySat

Download on the App Store